Regional Weather Roundup
Issued by NWS

Home | Current Version | Previous Version | Graphics & Text | Print | Product List | Glossary On
Versions: 1 2 3 4 5 6 7 8 9 10 11 12 13 14 15 16 17 18 19 20 21 22 23 24 25 26 27 28 29 30 31 32 33 34 35 36 37 38 39 40 41 42 43 44 45 46 47 48 49 50
000
ASUS45 KPSR 062300
RWRAZ

ARIZONA REGIONAL HOURLY WEATHER ROUNDUP
NATIONAL WEATHER SERVICE PHOENIX AZ
400 PM MST FRI MAR 06 2015

NOTE: FAIR INDICATES FEW OR NO CLOUDS BELOW 12,000 FEET WITH NO
SIGNIFICANT WEATHER AND/OR OBSTRUCTIONS TO VISIBILITY.

AZZ001>003-036-070000-
NORTHWEST ARIZONA

CITY           SKY/WX    TMP DP  RH WIND       PRES   REMARKS
KINGMAN        FAIR      68  23  18 N20       30.17F
$$

AZZ004>008-015-016-018-070000-
NORTH CENTRAL ARIZONA

CITY           SKY/WX    TMP DP  RH WIND       PRES   REMARKS
GRAND CANYON   SUNNY     46  21  36 NE20G26   30.32F
PRESCOTT       FAIR      64   8  11 VRB7      30.19F
FLAGSTAFF      NOT AVBL
PAYSON         FAIR      64  12  13 E10       30.19F
PAGE           FAIR      55  20  25 N3        30.31F
$$

AZZ009>014-017-070000-
NORTHEAST ARIZONA

CITY           SKY/WX    TMP DP  RH WIND       PRES   REMARKS
WINSLOW        NOT AVBL
SAINT JOHNS    FAIR      65   1   8 N13G18    30.19F
WINDOW ROCK    FAIR      57   8  14 NE8       30.29F
$$

AZZ023-070000-
GREATER PHOENIX AREA

CITY           SKY/WX    TMP DP  RH WIND       PRES   REMARKS
PHOENIX        FAIR      83   9   6 E13       29.98F
GLENDALE       SUNNY     81  12   7 NE14      30.01F
DEER VALLEY    FAIR      79   6   6 SE9G18    30.00F
SCOTTSDALE     FAIR      79   2   5 E13G23    30.02F
MESA-FALCON    SUNNY     82  -2   4 NE12      30.00F
MESA-GATEWAY   SUNNY     79  10   7 E14       30.02F
$$

AZZ027-028-070000-
SOUTHWEST MARICOPA COUNTY AND PINAL COUNTY

CITY           SKY/WX    TMP DP  RH WIND       PRES   REMARKS
CASA GRANDE    FAIR      79  21  11 E17       29.99F
$$

AZZ503-504-507>509-070000-
SOUTHEAST ARIZONA

CITY           SKY/WX    TMP DP  RH WIND       PRES   REMARKS
TUCSON         FAIR      77  26  15 E14G24    30.03F
RYAN FIELD       N/A     77  30  18 E17G31    30.01F
NOGALES        FAIR      73  24  16 SE9G18    30.04F
SIERRA VISTA   SUNNY     66  27  22 SE12      30.11F
SAFFORD        FAIR      71   4   7 SE18G28   30.13F
$$

AZZ020-021-025-026-031-070000-
SOUTHWEST ARIZONA

CITY           SKY/WX    TMP DP  RH WIND       PRES   REMARKS
YUMA           FAIR      85  15   7 NE16      29.96F
$$

CAZ031-033-041-043-047-048-061-070000-
SOUTHERN CALIFORNIA

CITY           SKY/WX    TMP DP  RH WIND       PRES   REMARKS
DOWNTOWN L.A.  FAIR      81  29  15 VRB3      30.00F
L.A. AIRPORT   FAIR      73  32  22 SW10      30.02F
SAN DIEGO      FAIR      75  41  29 NW7       29.99F
BURBANK        FAIR      84  14   7 NE15      30.01F
ONTARIO        FAIR      81   9   6 NE23G30   30.02F
RIVERSIDE      FAIR      82   6   5 NE13G29   30.02F
PALM SPRINGS   FAIR      83   6   5 MISG      30.06F
EL CENTRO NAS  FAIR      82  20  10 N13       30.00F
IMPERIAL       FAIR      82  20  10 NE14      29.99F
BLYTHE         FAIR      81  15   8 NE9       30.02F
$$

NVZ020-UTZ003-070000-
SOUTHERN NEVADA-UTAH

CITY           SKY/WX    TMP DP  RH WIND       PRES   REMARKS
LAS VEGAS      NOT AVBL
SALT LAKE CITY FAIR      55  21  26 NW3       30.39S
$$

NMZ009-TXZ055-070000-
NEW MEXICO-WEST TEXAS

CITY           SKY/WX    TMP DP  RH WIND       PRES   REMARKS
ALBUQUERQUE    SUNNY     58   9  14 CALM      30.27F
EL PASO        FAIR      64  11  12 NE9       30.21F
$$


........................KEY........................
SKY/WX - SKY CONDITION/WEATHER
TMP    - TEMPERATURE IN FAHRENHEIT
DP     - DEW POINT IN FAHRENHEIT
RH     - RELATIVE HUMIDITY IN PERCENT
WIND   - DIRECTION AND SPEED IN MILES PER HOUR (MPH)
VRB    - VARIABLE WIND DIRECTION
PRES   - MEAN SEA LEVEL PRESSURE IN INCHES OF MERCURY
         F - FALLING PRESSURE   R - RISING PRESSURE
         S - STEADY PRESSURE
VSB    - VISIBILITY IN MILES
HX     - HEAT INDEX IN FAHRENHEIT
WCI    - WIND CHILL INDEX IN FAHRENHEIT
TC     - TEMPERATURE IN CELSIUS WHICH IS ALSO KNOWN AS
         TEMPERATURE IN CENTIGRADE
AFB    - AIR FORCE BASE
         LUKE AFB IS LUKE AIR FORCE BASE
         DAVIS-MONTHAN IS DAVIS-MONTHAN AIR FORCE BASE
NAS    - NAVAL AIR STATION
         EL CENTRO NAS IS EL CENTRO NAVAL AIR STATION
N/A    - NOT AVAILABLE



USA.gov is the U.S. government's official web portal to all federal, state and local government web resources and services.